Location: Zagreb
(45.8000°N, 16.0000°E)
Time: 18:43:40
(UTC+02:00)

Tiros 1 despin weight - Pass Details

Date: 13 August 2022
Orbit: 591 x 638 km, 48.2° (Epoch: 06 October)

Event Time Altitude Azimuth Distance (km) Brightness Sun altitude
Rises 13:31:04 0° 248° (WSW) 2,855 ? 58.1°
Reaches altitude 10° 13:33:22 10° 248° (WSW) 1,945 ? 58.0°
Maximum altitude 13:37:50 85° 160° (SSE) 605 ? 57.8°
Drops below altitude 10° 13:42:15 10° 73° (ENE) 1,927 ? 57.6°
Sets 13:44:32 0° 72° (ENE) 2,826 ? 57.5°
